Flag for U.S.A. Weather past 2 weeks in Bismarck, North Dakota, U.S.A.

Now
59 °F

Sunny.


Feels Like: 55 °F
Forecast: 38 / 64 °F
Wind: 20 mph from Northwest

Location: Bismarck Municipal Airport

Current Time: Mar 29, 2015 at 7:39:16 PM

Latest Report: Mar 29, 2015 at 6:52 PM


Visibility: 10 mi

Pressure: 29.99 "Hg

Humidity: 31%

Dew point: 28 °F

Location of BismarckLocation

Historic Weather in Bismarck — Graph

°F

Bismarck temperature yesterday

Maximum temperature yesterday: 66 °F (at 4:52 PM)
Minimum temperature yesterday: 28 °F (at 1:52 AM)
Average temperature yesterday: 44 °F

Past Weeks' High & Low Weather Summary

 TemperatureHumidityPressure
High72 °F (Mar 15, 1:52 PM)100% (Mar 28, 2:52 AM)30.65 "Hg (Mar 28, 2:52 AM)
Low18 °F (Mar 17, 7:52 AM)21% (Mar 14, 5:52 PM)29.48 "Hg (Mar 28, 7:52 PM)
Average38 °F67%30.09 "Hg
* Reported Mar 14 5:52 PM — Mar 29 5:52 PM, Bismarck, Weather by CustomWeather, © 2015

Note: Actual official high and low records may vary slightly from our data, if they occured in-between our weather recording intervals... More about our weather records

Advertising

Bismarck weather history for previous 24 hours

 ConditionsComfort  
Time TempWeatherWind HumidityBarometerVisibility
5:52 PM
Sun, Mar 29
60 °FSunny.14 mph32%29.99 "Hg10 mi
4:52 PM60 °FPassing clouds.16 mph31%30.01 "Hg10 mi
3:52 PM59 °FSunny.16 mph28%30.02 "Hg10 mi
2:52 PM57 °FPassing clouds.17 mph29%30.04 "Hg10 mi
1:52 PM56 °FSunny.12 mph28%30.07 "Hg10 mi
12:52 PM54 °FSunny.22 mph30%30.08 "Hg10 mi
11:52 AM51 °FSunny.20 mph44%30.08 "Hg10 mi
10:52 AM48 °FSunny.20 mph54%30.06 "Hg10 mi
9:52 AM44 °FSunny.21 mph65%30.04 "Hg10 mi
8:52 AM40 °FSunny.20 mph77%30.02 "Hg10 mi
7:52 AM38 °FClear.25 mph79%29.99 "Hg10 mi
6:52 AM40 °FOvercast.24 mph80%29.92 "Hg10 mi
5:52 AM41 °FOvercast.31 mph82%29.83 "Hg10 mi
4:52 AM41 °FLight rain. Overcast.31 mph86%29.74 "Hg10 mi
3:52 AM45 °FRain. Mostly cloudy.15 mph93%29.64 "Hg8 mi
2:52 AM46 °FLight rain. Overcast.15 mph83%29.62 "Hg10 mi
1:52 AM48 °FOvercast.17 mph77%29.62 "Hg10 mi
12:52 AM50 °FMostly cloudy.17 mph71%29.63 "Hg10 mi
11:52 PM
Sat, Mar 28
51 °FPassing clouds.20 mph77%29.64 "Hg10 mi
10:52 PM54 °FLight rain. Mostly cloudy.22 mph86%29.66 "Hg10 mi
9:52 PM55 °FLight rain. Overcast.7 mph90%29.64 "Hg10 mi
8:52 PM58 °FLight rain. Overcast.8 mph75%29.63 "Hg10 mi
7:52 PM62 °FSunny.23 mph38%29.48 "Hg10 mi
Weather by CustomWeather, © 2015

See weather overviewHow to use our weather pages